IZ1GCT Weather Reports


Display with metric or nautical units.
time (UTC)temp
F
wind
direction
speed
MPH
gust
MPH
rain 1hr
in
rain 24hr
in
rain mn
in
humidity
%
barometer
mb
20260508192038 56 135 1.0 1.0 0.00 0.06 0.06 80 1019.5
20260508191538 57 158 1.0 3.0 0.00 0.06 0.06 80 1019.4
20260508191039 57 137 0.0 0.0 0.00 0.06 0.06 80 1019.3
20260508190539 57 135 0.0 0.0 0.00 0.06 0.06 80 1019.4
20260508190038 57 135 0.0 0.0 0.00 0.06 0.06 79 1019.2
20260508185538 57 135 0.0 1.0 0.00 0.06 0.06 80 1019.1
20260508185039 58 135 1.0 2.0 0.00 0.06 0.06 79 1019.1
20260508184538 58 155 2.0 3.0 0.00 0.06 0.06 77 1019.1
20260508184038 59 158 0.0 1.0 0.00 0.06 0.06 74 1019.0
20260508183539 59 158 0.0 0.0 0.00 0.06 0.06 74 1018.9
20260508183039 59 158 0.0 0.0 0.00 0.06 0.06 73 1019.0
20260508182538 60 158 1.0 1.0 0.00 0.06 0.06 73 1018.9
20260508182037 60 158 0.0 1.0 0.00 0.06 0.06 73 1018.9
20260508181539 60 158 1.0 1.0 0.00 0.06 0.06 72 1018.8
20260508181038 60 158 1.0 1.0 0.00 0.06 0.06 72 1018.8
20260508180539 61 158 2.0 3.0 0.00 0.06 0.06 71 1018.9
20260508180038 62 158 1.0 3.0 0.00 0.06 0.06 70 1018.8
20260508175538 62 158 1.0 3.0 0.00 0.06 0.06 69 1018.8
20260508175039 63 158 0.0 0.0 0.00 0.06 0.06 67 1018.8
20260508174538 63 158 0.0 0.0 0.00 0.06 0.06 66 1018.7
20260508174039 64 158 0.0 0.0 0.00 0.06 0.06 61 1018.7
20260508173538 65 158 0.0 0.0 0.00 0.06 0.06 58 1018.6
20260508173037 65 158 0.0 0.0 0.00 0.06 0.06 53 1018.4
20260508172539 65 140 0.0 1.0 0.00 0.06 0.06 51 1018.5
20260508172038 66 135 2.0 3.0 0.00 0.06 0.06 50 1018.4
20260508171537 67 128 2.0 3.0 0.00 0.06 0.06 50 1018.4
20260508171039 67 135 2.0 3.0 0.00 0.06 0.06 50 1018.3
20260508170539 67 158 2.0 3.0 0.00 0.06 0.06 51 1018.3
20260508170038 67 135 1.0 3.0 0.00 0.06 0.06 50 1018.3
20260508165539 67 112 3.0 5.0 0.00 0.06 0.06 49 1018.3
20260508165038 68 135 2.0 3.0 0.00 0.06 0.06 48 1018.3
20260508164538 68 141 1.0 3.0 0.00 0.06 0.06 46 1018.2
20260508164037 69 116 2.0 3.0 0.00 0.06 0.06 45 1018.3
20260508163539 69 126 2.0 3.0 0.00 0.06 0.06 45 1018.2
20260508163038 69 143 1.0 3.0 0.00 0.06 0.06 44 1018.1
20260508162538 70 135 2.0 3.0 0.00 0.06 0.06 45 1018.1
20260508162039 71 144 2.0 3.0 0.00 0.06 0.06 43 1018.2
20260508161538 71 135 1.0 3.0 0.00 0.06 0.06 43 1018.1
20260508161038 70 135 1.0 2.0 0.00 0.06 0.06 44 1018.2
20260508160539 70 157 3.0 3.0 0.00 0.06 0.06 43 1018.2
20260508155535 70 135 1.0 2.0 0.00 0.06 0.06 45 1018.4
20260508155035 68 152 1.0 3.0 0.00 0.06 0.06 48 1018.4
20260508154536 68 158 2.0 3.0 0.00 0.06 0.06 48 1018.4
20260508154035 68 147 2.0 3.0 0.00 0.06 0.06 49 1018.5
20260508153535 67 135 1.0 2.0 0.00 0.06 0.06 48 1018.5
20260508153034 66 158 2.0 3.0 0.00 0.06 0.06 51 1018.5
20260508152536 65 153 2.0 3.0 0.00 0.06 0.06 50 1018.6
20260508152035 66 158 2.0 3.0 0.00 0.06 0.06 50 1018.6
20260508151534 67 158 2.0 3.0 0.00 0.06 0.06 48 1018.6
20260508151036 67 135 0.0 1.0 0.00 0.06 0.06 50 1018.7
20260508150535 66 135 1.0 2.0 0.00 0.06 0.06 50 1018.6
20260508150035 66 158 0.0 0.0 0.00 0.06 0.06 51 1018.8
20260508145536 66 135 1.0 1.0 0.00 0.06 0.06 50 1018.8
20260508145034 66 135 1.0 1.0 0.00 0.06 0.06 50 1018.8
20260508144536 66 140 0.0 1.0 0.00 0.06 0.06 51 1018.8
20260508144035 66 135 1.0 2.0 0.00 0.06 0.06 50 1018.9
20260508143535 66 135 1.0 2.0 0.00 0.06 0.06 51 1018.9
20260508143036 65 152 0.0 0.0 0.00 0.06 0.06 51 1019.0
20260508142536 65 144 0.0 1.0 0.00 0.06 0.06 50 1019.1
20260508142035 65 135 0.0 1.0 0.00 0.06 0.06 52 1019.0
20260508141536 65 140 0.0 3.0 0.00 0.06 0.06 53 1019.0
20260508141035 65 142 1.0 2.0 0.00 0.06 0.06 53 1019.2
20260508140534 64 158 5.0 7.0 0.00 0.06 0.06 52 1019.2
20260508140036 64 158 3.0 7.0 0.00 0.06 0.06 50 1019.2
20260508135535 65 148 3.0 5.0 0.00 0.06 0.06 50 1019.2
20260508135035 64 158 3.0 5.0 0.00 0.06 0.06 52 1019.2
20260508134534 64 135 2.0 3.0 0.00 0.06 0.06 52 1019.3
20260508134035 64 127 2.0 3.0 0.00 0.06 0.06 53 1019.3
20260508133534 64 136 3.0 3.0 0.00 0.06 0.06 51 1019.3
20260508133035 65 158 3.0 5.0 0.00 0.06 0.06 52 1019.4
20260508132534 64 158 0.0 2.0 0.00 0.06 0.06 54 1019.5
20260508132034 64 135 2.0 3.0 0.00 0.06 0.06 55 1019.5
20260508131536 64 126 2.0 3.0 0.00 0.06 0.06 57 1019.6
20260508131035 64 158 2.0 3.0 0.00 0.06 0.06 57 1019.6
20260508130535 63 152 3.0 5.0 0.00 0.06 0.06 61 1019.6
20260508130036 64 135 1.0 1.0 0.00 0.06 0.06 60 1019.6
20260508125536 63 151 2.0 5.0 0.00 0.06 0.06 63 1019.7
20260508125035 63 133 2.0 3.0 0.00 0.06 0.06 63 1019.8
20260508124534 63 123 2.0 3.0 0.00 0.06 0.06 64 1019.8
20260508124036 63 135 2.0 3.0 0.00 0.06 0.06 65 1019.8
20260508123536 62 143 2.0 3.0 0.00 0.06 0.06 63 1019.8
20260508123035 62 112 1.0 3.0 0.00 0.06 0.06 64 1019.8
20260508122535 62 141 1.0 2.0 0.00 0.06 0.06 63 1019.8
20260508122034 63 158 0.0 1.0 0.00 0.06 0.06 67 1019.8
20260508121536 62 158 1.0 1.0 0.00 0.06 0.06 66 1019.9
20260508121035 62 158 1.0 2.0 0.00 0.06 0.06 66 1019.9
20260508120535 62 157 0.0 1.0 0.00 0.06 0.06 66 1019.9
20260508120035 62 135 0.0 1.0 0.00 0.06 0.06 63 1019.9
20260508115535 62 135 0.0 0.0 0.00 0.06 0.06 68 1019.9
20260508115036 61 135 0.0 1.0 0.00 0.06 0.06 65 1020.0
20260508114535 61 135 0.0 1.0 0.00 0.06 0.06 66 1020.0
20260508114036 61 135 1.0 2.0 0.00 0.06 0.06 66 1020.0
20260508113535 61 135 1.0 2.0 0.00 0.06 0.06 65 1019.9
20260508113035 61 135 0.0 1.0 0.00 0.06 0.06 70 1020.0
20260508112536 61 135 0.0 0.0 0.00 0.06 0.06 69 1020.0
20260508112036 60 135 0.0 0.0 0.00 0.06 0.06 70 1020.0
20260508111535 60 135 0.0 0.0 0.00 0.06 0.06 70 1020.0
20260508111034 60 158 2.0 3.0 0.00 0.06 0.06 72 1020.1
20260508110536 60 135 0.0 1.0 0.00 0.06 0.06 72 1020.1
20260508110035 59 135 1.0 1.0 0.00 0.06 0.06 73 1020.0
20260508105535 59 135 1.0 2.0 0.00 0.06 0.06 73 1020.2
20260508105034 59 135 1.0 1.0 0.00 0.06 0.06 72 1020.2
20260508104536 59 135 0.0 1.0 0.00 0.06 0.06 73 1020.2
20260508104036 59 135 0.0 1.0 0.00 0.06 0.06 75 1020.1
20260508103535 58 135 0.0 0.0 0.00 0.06 0.06 75 1020.2
20260508103035 58 135 0.0 0.0 0.00 0.06 0.06 75 1020.2
20260508102534 58 135 0.0 0.0 0.00 0.06 0.06 75 1020.2
20260508102034 58 135 0.0 1.0 0.00 0.06 0.06 76 1020.1
20260508101536 57 135 0.0 1.0 0.00 0.06 0.06 77 1020.1
20260508101035 57 135 0.0 1.0 0.00 0.06 0.06 76 1020.1
20260508100535 57 135 2.0 3.0 0.00 0.06 0.06 77 1020.1
20260508100034 57 135 1.0 1.0 0.00 0.06 0.06 77 1020.1
20260508095536 57 135 2.0 3.0 0.00 0.06 0.06 78 1020.2
20260508095035 57 135 2.0 3.0 0.00 0.06 0.06 79 1020.1
20260508094534 56 135 1.0 2.0 0.00 0.06 0.06 78 1020.1
20260508094036 56 135 3.0 5.0 0.00 0.06 0.06 77 1020.1
20260508093535 57 135 1.0 3.0 0.00 0.06 0.06 80 1020.0
20260508093035 56 135 1.0 2.0 0.01 0.06 0.06 80 1020.0
20260508092534 56 135 2.0 3.0 0.01 0.06 0.06 81 1020.1
20260508092036 56 135 1.0 2.0 0.01 0.06 0.06 83 1020.1
20260508091534 56 135 0.0 0.0 0.01 0.06 0.06 84 1020.1
20260508091035 56 135 0.0 2.0 0.01 0.06 0.06 86 1020.0
20260508090534 56 135 0.0 1.0 0.02 0.06 0.06 87 1020.0
20260508090035 56 135 0.0 1.0 0.02 0.06 0.06 90 1019.9
20260508085535 56 158 0.0 1.0 0.02 0.06 0.06 90 1019.8
20260508085036 56 158 0.0 0.0 0.02 0.06 0.06 91 1019.9
20260508084535 55 158 0.0 0.0 0.02 0.06 0.06 91 1019.8
20260508084035 55 158 1.0 1.0 0.02 0.06 0.06 91 1019.8
20260508083534 55 135 1.0 1.0 0.02 0.06 0.06 90 1019.8
20260508083035 55 135 1.0 2.0 0.01 0.05 0.05 90 1019.8
20260508082535 55 135 2.0 3.0 0.01 0.05 0.05 90 1019.8
20260508082034 55 118 0.0 2.0 0.01 0.05 0.05 90 1019.7
20260508081535 55 132 3.0 5.0 0.01 0.05 0.05 89 1019.7
20260508081036 55 135 3.0 6.0 0.01 0.05 0.05 88 1019.7
20260508080535 55 130 5.0 6.0 0.00 0.04 0.04 87 1019.6
20260508080035 56 135 3.0 6.0 0.00 0.04 0.04 86 1019.4
20260508075534 56 112 1.0 2.0 0.00 0.04 0.04 85 1019.3
20260508075035 56 135 0.0 0.0 0.00 0.04 0.04 85 1019.2
20260508074535 56 135 0.0 0.0 0.00 0.04 0.04 84 1019.2
20260508074036 56 135 0.0 1.0 0.00 0.04 0.04 85 1019.2
20260508073534 56 136 2.0 5.0 0.00 0.04 0.04 85 1019.2
20260508073036 55 135 2.0 3.0 0.00 0.04 0.04 87 1019.3
20260508072535 55 135 1.0 2.0 0.00 0.04 0.04 89 1019.1
20260508072035 55 135 1.0 1.0 0.01 0.04 0.04 89 1019.1
20260508071535 55 135 1.0 2.0 0.01 0.04 0.04 89 1019.3
20260508071035 55 135 2.0 3.0 0.02 0.04 0.04 90 1019.2
20260508070534 55 135 3.0 3.0 0.02 0.04 0.04 90 1019.1
20260508070035 55 135 1.0 3.0 0.02 0.04 0.04 90 1019.1
20260508065536 54 135 2.0 3.0 0.02 0.04 0.04 93 1019.0
20260508065035 54 135 2.0 3.0 0.02 0.04 0.04 94 1019.0
20260508064535 54 135 1.0 2.0 0.02 0.04 0.04 94 1019.0
20260508064034 54 135 1.0 3.0 0.02 0.04 0.04 95 1019.0
20260508063536 54 135 2.0 3.0 0.02 0.04 0.04 95 1018.9
20260508063035 54 135 2.0 3.0 0.02 0.04 0.04 95 1018.9
20260508062535 54 158 0.0 0.0 0.02 0.04 0.04 95 1019.0
20260508062034 54 158 1.0 2.0 0.01 0.02 0.02 95 1018.9
20260508061536 54 158 0.0 0.0 0.01 0.02 0.02 95 1018.9
20260508061035 54 158 0.0 1.0 0.00 0.01 0.01 95 1018.8
20260508060535 54 158 1.0 2.0 0.00 0.01 0.01 94 1018.7
20260508060034 54 135 0.0 0.0 0.00 0.01 0.01 94 1018.8
20260508055536 53 135 0.0 0.0 0.00 0.01 0.01 94 1018.7
20260508055035 53 135 0.0 0.0 0.00 0.01 0.01 94 1018.7
20260508054534 53 135 0.0 0.0 0.00 0.01 0.01 94 1018.7
20260508054036 53 135 0.0 0.0 0.00 0.01 0.01 94 1018.6
20260508053534 53 135 0.0 0.0 0.00 0.01 0.01 94 1018.6
20260508053035 53 135 0.0 0.0 0.00 0.01 0.01 94 1018.5
20260508052534 53 135 0.0 0.0 0.00 0.01 0.01 94 1018.4
20260508052035 53 135 0.0 0.0 0.00 0.01 0.01 94 1018.6
20260508051535 53 135 0.0 0.0 0.00 0.01 0.01 94 1018.5
20260508051034 53 135 0.0 1.0 0.00 0.01 0.01 94 1018.5
20260508050534 53 135 1.0 2.0 0.00 0.01 0.01 94 1018.4
20260508050035 53 158 1.0 1.0 0.00 0.01 0.01 94 1018.4
20260508045535 53 158 0.0 1.0 0.00 0.01 0.01 94 1018.5
20260508045034 53 158 1.0 2.0 0.00 0.01 0.01 94 1018.4
20260508044536 53 135 1.0 3.0 0.00 0.01 0.01 95 1018.3
20260508044035 53 135 2.0 5.0 0.01 0.01 0.01 94 1018.2
20260508043535 53 135 1.0 1.0 0.01 0.01 0.01 94 1018.3
20260508043034 53 158 0.0 1.0 0.01 0.01 0.01 94 1018.1
20260508042535 53 158 1.0 2.0 0.01 0.01 0.01 94 1018.1
20260508042035 53 135 0.0 1.0 0.01 0.01 0.01 93 1018.1
20260508041534 53 119 2.0 3.0 0.01 0.01 0.01 93 1018.0
20260508041034 53 148 2.0 3.0 0.01 0.01 0.01 92 1018.0
20260508040534 53 135 3.0 6.0 0.01 0.01 0.01 91 1018.1
20260508035539 53 158 1.0 2.0 0.01 0.01 0.01 89 1018.0
20260508035039 54 112 0.0 1.0 0.01 0.01 0.01 88 1018.0
20260508034540 54 158 0.0 1.0 0.01 0.01 0.01 88 1017.8
20260508034040 54 144 0.0 1.0 0.00 0.00 0.00 89 1017.8
20260508033539 54 135 3.0 6.0 0.00 0.00 0.00 90 1017.9
20260508033039 54 158 3.0 5.0 0.00 0.00 0.00 90 1017.8
20260508032539 54 135 2.0 3.0 0.00 0.00 0.00 91 1017.7
20260508032040 54 114 2.0 3.0 0.00 0.00 0.00 91 1017.8
20260508031540 53 158 2.0 3.0 0.00 0.00 0.00 91 1017.7
20260508031039 53 158 2.0 5.0 0.00 0.00 0.00 91 1017.7
20260508030540 53 135 3.0 3.0 0.00 0.00 0.00 91 1017.6
20260508030040 53 158 6.0 6.0 0.00 0.00 0.00 90 1017.5
20260508025539 53 158 3.0 3.0 0.00 0.00 0.00 90 1017.4
20260508025040 53 158 0.0 0.0 0.00 0.00 0.00 90 1017.3
20260508024540 53 158 0.0 0.0 0.00 0.00 0.00 90 1017.2
20260508024039 53 136 1.0 1.0 0.00 0.00 0.00 90 1017.1
20260508023541 53 135 1.0 1.0 0.00 0.00 0.00 90 1017.1
20260508023040 53 135 1.0 3.0 0.00 0.00 0.00 90 1017.2
20260508022539 53 142 2.0 3.0 0.00 0.00 0.00 88 1017.2
20260508022041 54 135 1.0 2.0 0.00 0.00 0.00 88 1017.1
20260508021540 54 158 1.0 1.0 0.00 0.00 0.00 87 1017.0
20260508021041 54 135 2.0 3.0 0.00 0.00 0.00 86 1017.1
20260508020540 54 158 1.0 1.0 0.00 0.00 0.00 85 1017.1
20260508020040 54 158 0.0 1.0 0.00 0.00 0.00 84 1017.2
20260508015539 54 158 0.0 0.0 0.00 0.00 0.00 84 1017.2
20260508015041 54 158 0.0 0.0 0.00 0.00 0.00 84 1017.2
20260508014540 54 158 0.0 1.0 0.00 0.00 0.00 84 1017.2
20260508014039 54 158 0.0 1.0 0.00 0.00 0.00 84 1017.2
20260508013541 54 158 1.0 2.0 0.00 0.00 0.00 84 1017.1
20260508013040 54 158 0.0 1.0 0.00 0.00 0.00 83 1017.2
20260508012540 54 158 0.0 0.0 0.00 0.00 0.00 83 1017.3
20260508012039 54 135 0.0 0.0 0.00 0.00 0.00 84 1017.2
20260508011540 54 135 1.0 1.0 0.00 0.00 0.00 83 1017.2
20260508011040 54 153 1.0 3.0 0.00 0.00 0.00 83 1017.2
20260508010539 55 141 0.0 0.0 0.00 0.00 0.00 80 1017.2
20260508010039 55 158 0.0 0.0 0.00 0.00 0.00 79 1017.2
20260508005539 55 158 0.0 0.0 0.00 0.00 0.00 79 1017.2
20260508005039 55 158 0.0 2.0 0.00 0.00 0.00 79 1017.2
20260508004540 55 135 1.0 2.0 0.00 0.00 0.00 80 1017.2
20260508004040 55 140 2.0 3.0 0.00 0.00 0.00 80 1017.3
20260508003539 55 158 2.0 3.0 0.00 0.00 0.00 79 1017.2
20260508003039 55 142 1.0 3.0 0.00 0.00 0.00 78 1017.3
20260508002540 55 135 1.0 1.0 0.00 0.00 0.00 78 1017.3
20260508002040 55 135 1.0 1.0 0.00 0.00 0.00 77 1017.4
20260508001540 55 158 0.0 1.0 0.00 0.00 0.00 78 1017.3
20260508001040 55 158 2.0 3.0 0.00 0.00 0.00 78 1017.4
20260508000540 55 158 2.0 3.0 0.00 0.00 0.00 77 1017.4
20260508000040 55 158 2.0 3.0 0.00 0.00 0.00 77 1017.4
20260507235539 55 158 2.0 5.0 0.00 0.00 0.00 76 1017.5
20260507235040 55 158 0.0 0.0 0.00 0.00 0.00 76 1017.5
20260507234539 55 135 0.0 0.0 0.00 0.00 0.00 75 1017.6
20260507234041 55 135 0.0 0.0 0.00 0.00 0.00 75 1017.7
20260507233539 55 135 0.0 1.0 0.00 0.00 0.00 76 1017.7
20260507233040 55 143 2.0 3.0 0.00 0.00 0.00 76 1017.5
20260507232540 55 158 1.0 2.0 0.00 0.00 0.00 75 1017.6
20260507232040 55 158 0.0 0.0 0.00 0.00 0.00 75 1017.7
20260507231540 55 158 0.0 0.0 0.00 0.00 0.00 75 1017.6
20260507231039 55 158 0.0 0.0 0.00 0.00 0.00 74 1017.7
20260507230539 55 158 0.0 0.0 0.00 0.00 0.00 75 1017.8
20260507230040 55 158 0.0 0.0 0.00 0.00 0.00 75 1017.7
20260507225539 55 158 0.0 1.0 0.00 0.00 0.00 75 1017.7
20260507225039 55 158 0.0 1.0 0.00 0.00 0.00 75 1017.6
20260507224540 55 158 0.0 0.0 0.00 0.00 0.00 75 1017.7
20260507224039 55 139 1.0 2.0 0.00 0.00 0.00 74 1017.6
20260507223539 56 158 0.0 1.0 0.00 0.00 0.00 73 1017.6
20260507223039 56 158 0.0 1.0 0.00 0.00 0.00 72 1017.6
20260507222539 56 158 0.0 0.0 0.00 0.00 0.00 72 1017.5
20260507222040 56 158 0.0 0.0 0.00 0.00 0.00 72 1017.5
20260507221539 56 158 0.0 1.0 0.00 0.00 0.00 72 1017.5
20260507221039 56 135 0.0 2.0 0.00 0.00 0.00 72 1017.5
20260507220540 56 135 1.0 1.0 0.00 0.00 0.00 72 1017.5
20260507220039 56 135 1.0 1.0 0.00 0.00 0.00 71 1017.4
20260507215539 56 135 1.0 3.0 0.00 0.00 0.00 71 1017.4
20260507215041 56 158 2.0 3.0 0.00 0.00 0.00 72 1017.4
20260507214540 56 153 2.0 5.0 0.00 0.00 0.00 72 1017.4
20260507214039 56 158 1.0 2.0 0.00 0.00 0.00 72 1017.4
20260507213539 56 158 2.0 3.0 0.00 0.00 0.00 72 1017.3
20260507213041 56 136 0.0 1.0 0.00 0.00 0.00 71 1017.3
20260507212540 56 135 1.0 1.0 0.00 0.00 0.00 71 1017.3
20260507212039 56 112 0.0 1.0 0.00 0.00 0.00 70 1017.4
20260507211539 56 158 0.0 1.0 0.00 0.00 0.00 70 1017.3
20260507211040 56 158 1.0 3.0 0.00 0.00 0.00 71 1017.2
20260507210540 56 158 3.0 5.0 0.00 0.00 0.00 71 1017.2
20260507210039 56 158 0.0 1.0 0.00 0.00 0.00 71 1017.3
20260507205540 56 135 0.0 1.0 0.00 0.00 0.00 70 1017.3
20260507205040 56 141 1.0 3.0 0.00 0.00 0.00 70 1017.2
20260507204539 56 158 1.0 2.0 0.00 0.00 0.00 70 1017.2
20260507204039 56 158 1.0 2.0 0.00 0.00 0.00 70 1017.1
20260507203540 56 158 1.0 1.0 0.00 0.00 0.00 70 1017.1
20260507203040 56 158 1.0 1.0 0.00 0.00 0.00 70 1016.9
20260507202539 57 135 0.0 0.0 0.00 0.00 0.00 69 1016.9
20260507202039 57 143 1.0 2.0 0.00 0.00 0.00 69 1016.9
20260507201539 57 158 2.0 3.0 0.00 0.00 0.00 68 1016.8
20260507201040 58 135 1.0 2.0 0.00 0.00 0.00 67 1016.8
20260507200540 58 158 1.0 3.0 0.00 0.00 0.00 65 1016.8
20260507200040 59 135 0.0 0.0 0.00 0.00 0.00 63 1016.7
20260507195539 60 141 0.0 1.0 0.00 0.00 0.00 63 1016.6
20260507195040 60 150 1.0 2.0 0.00 0.00 0.00 63 1016.6
20260507194539 60 158 1.0 2.0 0.00 0.00 0.00 61 1016.7
20260507194040 60 158 0.0 0.0 0.00 0.00 0.00 61 1016.5
20260507193540 60 158 1.0 2.0 0.00 0.00 0.00 61 1016.5
20260507193039 61 135 0.0 0.0 0.00 0.00 0.00 61 1016.3
20260507192540 61 145 1.0 2.0 0.00 0.00 0.00 61 1016.2